| time (UTC) | temp C | wind direction | speed KPH | gust KPH | rain 1hr cm | rain 24hr cm | rain mn cm | humidity % | barometer mb |
| 20260509214503 | 13 | 23 | 4.8 | 6.4 | 0.00 | 0.00 | 0.00 | 71 | 1015.5 |
| 20260509213603 | 13 | 78 | 6.4 | 9.7 | 0.00 | 0.00 | 0.00 | 70 | 1015.8 |
| 20260509212703 | 13 | 29 | 6.4 | 9.7 | 0.00 | 0.00 | 0.00 | 67 | 1015.4 |
| 20260509211803 | 13 | 17 | 4.8 | 6.4 | 0.00 | 0.00 | 0.00 | 64 | 1015.2 |
| 20260509211114 | 14 | 78 | 8.0 | 12.9 | 0.00 | 0.00 | 0.00 | 63 | 1015.2 |
| 20260509210004 | 14 | 79 | 4.8 | 8.0 | 0.00 | 0.00 | 0.00 | 62 | 1015.0 |
| 20260509205403 | 14 | 64 | 3.2 | 8.0 | 0.00 | 0.00 | 0.00 | 62 | 1015.1 |
| 20260509204503 | 15 | 16 | 3.2 | 4.8 | 0.00 | 0.00 | 0.00 | 61 | 1015.0 |
| 20260509203603 | 15 | 87 | 3.2 | 4.8 | 0.00 | 0.00 | 0.00 | 61 | 1014.8 |
| 20260509202913 | 15 | 53 | 3.2 | 6.4 | 0.00 | 0.00 | 0.00 | 60 | 1015.0 |
| 20260509201803 | 16 | 37 | 3.2 | 4.8 | 0.00 | 0.00 | 0.00 | 58 | 1015.0 |
| 20260509200903 | 16 | 44 | 4.8 | 6.4 | 0.00 | 0.00 | 0.00 | 56 | 1014.8 |
| 20260509200003 | 16 | 21 | 4.8 | 6.4 | 0.00 | 0.00 | 0.00 | 55 | 1014.7 |
| 20260509195403 | 16 | 53 | 4.8 | 6.4 | 0.00 | 0.00 | 0.00 | 55 | 1014.6 |
| 20260509194503 | 17 | 65 | 4.8 | 6.4 | 0.00 | 0.00 | 0.00 | 53 | 1014.5 |
| 20260509193603 | 17 | 82 | 4.8 | 6.4 | 0.00 | 0.00 | 0.00 | 53 | 1014.3 |
| 20260509192703 | 17 | 34 | 6.4 | 9.7 | 0.00 | 0.00 | 0.00 | 50 | 1014.2 |
| 20260509191803 | 17 | 59 | 6.4 | 9.7 | 0.00 | 0.00 | 0.00 | 48 | 1014.4 |
| 20260509190903 | 18 | 28 | 8.0 | 9.7 | 0.00 | 0.00 | 0.00 | 47 | 1014.4 |
| 20260509190003 | 18 | 58 | 8.0 | 9.7 | 0.00 | 0.00 | 0.00 | 46 | 1014.2 |
| 20260509185403 | 18 | 30 | 8.0 | 12.9 | 0.00 | 0.00 | 0.00 | 47 | 1014.5 |
| 20260509184503 | 18 | 53 | 8.0 | 11.3 | 0.00 | 0.00 | 0.00 | 47 | 1014.2 |
| 20260509183603 | 18 | 43 | 8.0 | 12.9 | 0.00 | 0.00 | 0.00 | 47 | 1014.3 |
| 20260509182914 | 18 | 59 | 9.7 | 12.9 | 0.00 | 0.00 | 0.00 | 48 | 1014.2 |
| 20260509182013 | 18 | 99 | 9.7 | 12.9 | 0.00 | 0.00 | 0.00 | 47 | 1014.3 |
| 20260509181113 | 19 | 61 | 9.7 | 14.5 | 0.00 | 0.00 | 0.00 | 46 | 1014.0 |
| 20260509180003 | 19 | 96 | 9.7 | 12.9 | 0.00 | 0.00 | 0.00 | 45 | 1014.1 |
| 20260509175403 | 19 | 54 | 9.7 | 12.9 | 0.00 | 0.00 | 0.00 | 45 | 1014.3 |
| 20260509174503 | 20 | 90 | 9.7 | 14.5 | 0.00 | 0.00 | 0.00 | 44 | 1014.0 |
| 20260509173603 | 20 | 68 | 9.7 | 12.9 | 0.00 | 0.00 | 0.00 | 43 | 1013.9 |
| 20260509172703 | 20 | 50 | 9.7 | 12.9 | 0.00 | 0.00 | 0.00 | 42 | 1014.0 |
| 20260509171803 | 20 | 68 | 8.0 | 12.9 | 0.00 | 0.00 | 0.00 | 43 | 1013.9 |
| 20260509170903 | 20 | 41 | 11.3 | 14.5 | 0.00 | 0.00 | 0.00 | 42 | 1014.0 |
| 20260509170003 | 20 | 48 | 9.7 | 14.5 | 0.00 | 0.00 | 0.00 | 41 | 1014.1 |
| 20260509165613 | 21 | 56 | 9.7 | 12.9 | 0.00 | 0.00 | 0.00 | 41 | 1014.1 |
| 20260509164503 | 21 | 75 | 9.7 | 12.9 | 0.00 | 0.00 | 0.00 | 41 | 1014.1 |
| 20260509163603 | 21 | 17 | 8.0 | 12.9 | 0.00 | 0.00 | 0.00 | 42 | 1014.3 |
| 20260509162703 | 20 | 32 | 11.3 | 17.7 | 0.00 | 0.00 | 0.00 | 42 | 1013.9 |
| 20260509161803 | 21 | 88 | 8.0 | 12.9 | 0.00 | 0.00 | 0.00 | 41 | 1014.2 |
| 20260509160903 | 20 | 57 | 9.7 | 12.9 | 0.00 | 0.00 | 0.00 | 42 | 1014.4 |
| 20260509160003 | 20 | 69 | 11.3 | 17.7 | 0.00 | 0.00 | 0.00 | 42 | 1014.4 |
| 20260509155403 | 20 | 79 | 9.7 | 17.7 | 0.00 | 0.00 | 0.00 | 41 | 1014.3 |
| 20260509154503 | 20 | 90 | 11.3 | 14.5 | 0.00 | 0.00 | 0.00 | 43 | 1014.1 |
| 20260509153603 | 20 | 83 | 11.3 | 12.9 | 0.00 | 0.00 | 0.00 | 41 | 1014.2 |
| 20260509152703 | 21 | 91 | 8.0 | 12.9 | 0.00 | 0.00 | 0.00 | 42 | 1014.4 |
| 20260509151803 | 21 | 56 | 9.7 | 17.7 | 0.00 | 0.00 | 0.00 | 42 | 1014.5 |
| 20260509150903 | 22 | 47 | 11.3 | 17.7 | 0.00 | 0.00 | 0.00 | 41 | 1014.3 |
| 20260509150003 | 22 | 43 | 8.0 | 11.3 | 0.00 | 0.00 | 0.00 | 39 | 1014.5 |
| 20260509145403 | 22 | 47 | 11.3 | 17.7 | 0.00 | 0.00 | 0.00 | 42 | 1014.6 |
| 20260509144503 | 22 | 47 | 11.3 | 17.7 | 0.00 | 0.00 | 0.00 | 41 | 1014.5 |
| 20260509143603 | 22 | 105 | 8.0 | 14.5 | 0.00 | 0.00 | 0.00 | 42 | 1014.7 |
| 20260509142703 | 22 | 65 | 8.0 | 14.5 | 0.00 | 0.00 | 0.00 | 38 | 1014.6 |
| 20260509141803 | 22 | 43 | 11.3 | 17.7 | 0.00 | 0.00 | 0.00 | 41 | 1014.9 |
| 20260509140903 | 22 | 11 | 9.7 | 17.7 | 0.00 | 0.00 | 0.00 | 43 | 1014.7 |
| 20260509140213 | 21 | 44 | 9.7 | 12.9 | 0.00 | 0.00 | 0.00 | 44 | 1014.9 |
| 20260509135614 | 22 | 31 | 9.7 | 16.1 | 0.00 | 0.00 | 0.00 | 43 | 1015.0 |
| 20260509134714 | 22 | 34 | 9.7 | 16.1 | 0.00 | 0.00 | 0.00 | 43 | 1014.7 |
| 20260509133603 | 22 | 97 | 11.3 | 16.1 | 0.00 | 0.00 | 0.00 | 44 | 1014.7 |
| 20260509132703 | 21 | 51 | 9.7 | 12.9 | 0.00 | 0.00 | 0.00 | 48 | 1014.7 |
| 20260509132014 | 20 | 103 | 8.0 | 12.9 | 0.00 | 0.00 | 0.00 | 48 | 1014.8 |
| 20260509130903 | 20 | 48 | 8.0 | 12.9 | 0.00 | 0.00 | 0.00 | 47 | 1014.9 |
| 20260509130003 | 21 | 58 | 8.0 | 14.5 | 0.00 | 0.00 | 0.00 | 47 | 1015.0 |
| 20260509125403 | 21 | 25 | 11.3 | 17.7 | 0.00 | 0.00 | 0.00 | 49 | 1014.9 |
| 20260509124503 | 21 | 359 | 9.7 | 17.7 | 0.00 | 0.00 | 0.00 | 46 | 1014.8 |
| 20260509123603 | 21 | 45 | 9.7 | 16.1 | 0.00 | 0.00 | 0.00 | 50 | 1014.9 |
| 20260509122703 | 21 | 18 | 8.0 | 9.7 | 0.00 | 0.00 | 0.00 | 53 | 1014.9 |
| 20260509121803 | 19 | 47 | 8.0 | 11.3 | 0.00 | 0.00 | 0.00 | 53 | 1015.2 |
| 20260509120903 | 19 | 60 | 6.4 | 9.7 | 0.00 | 0.00 | 0.00 | 54 | 1015.3 |
| 20260509120003 | 19 | 52 | 6.4 | 11.3 | 0.00 | 0.00 | 0.00 | 52 | 1015.4 |
| 20260509115613 | 19 | 6 | 8.0 | 11.3 | 0.00 | 0.00 | 0.00 | 51 | 1015.5 |
| 20260509114503 | 19 | 69 | 8.0 | 12.9 | 0.00 | 0.00 | 0.00 | 53 | 1015.4 |
| 20260509113603 | 19 | 40 | 8.0 | 12.9 | 0.00 | 0.00 | 0.00 | 53 | 1015.6 |
| 20260509112703 | 19 | 18 | 8.0 | 11.3 | 0.00 | 0.00 | 0.00 | 54 | 1015.6 |
| 20260509111803 | 18 | 78 | 8.0 | 9.7 | 0.00 | 0.00 | 0.00 | 55 | 1015.6 |
| 20260509110903 | 18 | 33 | 8.0 | 9.7 | 0.00 | 0.00 | 0.00 | 56 | 1015.8 |
| 20260509110003 | 18 | 48 | 6.4 | 9.7 | 0.00 | 0.00 | 0.00 | 58 | 1015.7 |
| 20260509105403 | 18 | 72 | 6.4 | 9.7 | 0.00 | 0.00 | 0.00 | 59 | 1015.9 |
| 20260509104503 | 17 | 6 | 6.4 | 9.7 | 0.00 | 0.00 | 0.00 | 57 | 1016.1 |
| 20260509103603 | 17 | 66 | 6.4 | 8.0 | 0.00 | 0.00 | 0.00 | 58 | 1016.0 |
| 20260509102703 | 17 | 13 | 8.0 | 12.9 | 0.00 | 0.00 | 0.00 | 58 | 1016.1 |
| 20260509101803 | 17 | 338 | 6.4 | 9.7 | 0.00 | 0.00 | 0.00 | 59 | 1016.2 |
| 20260509100903 | 17 | 12 | 6.4 | 8.0 | 0.00 | 0.00 | 0.00 | 62 | 1016.3 |
| 20260509100004 | 17 | 354 | 6.4 | 8.0 | 0.00 | 0.00 | 0.00 | 62 | 1016.0 |
| 20260509095403 | 16 | 9 | 6.4 | 11.3 | 0.00 | 0.00 | 0.00 | 62 | 1016.4 |
| 20260509094714 | 16 | 355 | 6.4 | 11.3 | 0.00 | 0.00 | 0.00 | 62 | 1016.1 |
| 20260509093603 | 16 | 68 | 6.4 | 8.0 | 0.00 | 0.00 | 0.00 | 62 | 1016.3 |
| 20260509092703 | 16 | 101 | 6.4 | 9.7 | 0.00 | 0.00 | 0.00 | 63 | 1016.2 |
| 20260509091803 | 16 | 1 | 8.0 | 8.0 | 0.00 | 0.00 | 0.00 | 63 | 1016.0 |
| 20260509090903 | 15 | 65 | 6.4 | 8.0 | 0.00 | 0.00 | 0.00 | 64 | 1016.3 |
| 20260509090004 | 15 | 356 | 6.4 | 8.0 | 0.00 | 0.00 | 0.00 | 64 | 1016.2 |
| 20260509085403 | 15 | 345 | 4.8 | 8.0 | 0.00 | 0.00 | 0.00 | 65 | 1016.2 |
| 20260509084714 | 14 | 46 | 4.8 | 8.0 | 0.00 | 0.00 | 0.00 | 66 | 1016.2 |
| 20260509083603 | 14 | 24 | 6.4 | 8.0 | 0.00 | 0.00 | 0.00 | 66 | 1016.3 |
| 20260509082703 | 13 | 52 | 6.4 | 11.3 | 0.00 | 0.00 | 0.00 | 67 | 1016.2 |
| 20260509081803 | 13 | 17 | 6.4 | 9.7 | 0.00 | 0.00 | 0.00 | 67 | 1016.4 |
| 20260509080903 | 13 | 348 | 6.4 | 9.7 | 0.00 | 0.00 | 0.00 | 66 | 1016.3 |
| 20260509080212 | 13 | 49 | 4.8 | 6.4 | 0.00 | 0.00 | 0.00 | 67 | 1016.3 |
| 20260509075403 | 12 | 61 | 4.8 | 8.0 | 0.00 | 0.00 | 0.00 | 68 | 1016.4 |
| 20260509074503 | 12 | 51 | 4.8 | 6.4 | 0.00 | 0.00 | 0.00 | 67 | 1016.0 |
| 20260509073603 | 12 | 51 | 4.8 | 8.0 | 0.00 | 0.00 | 0.00 | 68 | 1016.4 |
| 20260509072703 | 12 | 54 | 4.8 | 6.4 | 0.00 | 0.00 | 0.00 | 68 | 1016.3 |
| 20260509071803 | 12 | 66 | 4.8 | 6.4 | 0.00 | 0.00 | 0.00 | 71 | 1016.4 |
| 20260509070903 | 12 | 68 | 4.8 | 6.4 | 0.00 | 0.00 | 0.00 | 72 | 1016.2 |
| 20260509070003 | 12 | 73 | 6.4 | 9.7 | 0.00 | 0.00 | 0.00 | 71 | 1016.1 |
| 20260509065403 | 12 | 65 | 6.4 | 8.0 | 0.00 | 0.00 | 0.00 | 71 | 1015.9 |
| 20260509064503 | 12 | 51 | 4.8 | 6.4 | 0.00 | 0.00 | 0.00 | 72 | 1016.3 |
| 20260509063812 | 12 | 50 | 4.8 | 6.4 | 0.00 | 0.00 | 0.00 | 72 | 1016.2 |
| 20260509062703 | 11 | 56 | 4.8 | 6.4 | 0.00 | 0.00 | 0.00 | 74 | 1016.0 |
| 20260509061803 | 11 | 54 | 3.2 | 4.8 | 0.00 | 0.00 | 0.00 | 79 | 1016.0 |
| 20260509060926 | 10 | 56 | 3.2 | 3.2 | 0.00 | 0.00 | 0.00 | 83 | 1015.9 |
| 20260509060004 | 9 | 56 | 3.2 | 4.8 | 0.00 | 0.00 | 0.00 | 85 | 1015.9 |
| 20260509055404 | 9 | 49 | 3.2 | 4.8 | 0.00 | 0.00 | 0.00 | 87 | 1015.7 |
| 20260509054712 | 8 | 45 | 3.2 | 4.8 | 0.00 | 0.00 | 0.00 | 88 | 1015.8 |
| 20260509053603 | 8 | 45 | 3.2 | 6.4 | 0.00 | 0.00 | 0.00 | 89 | 1015.7 |
| 20260509052703 | 7 | 45 | 1.6 | 3.2 | 0.00 | 0.00 | 0.00 | 89 | 1015.5 |
| 20260509051810 | 7 | 45 | 0.0 | 1.6 | 0.00 | 0.00 | 0.00 | 88 | 1015.5 |
| 20260509050903 | 7 | 0 | 0.0 | 0.0 | 0.00 | 0.00 | 0.00 | 92 | 1015.3 |
| 20260509050003 | 7 | 45 | 0.0 | 1.6 | 0.00 | 0.00 | 0.00 | 92 | 1015.5 |
| 20260509045613 | 7 | 45 | 1.6 | 3.2 | 0.00 | 0.00 | 0.00 | 92 | 1015.3 |
| 20260509044503 | 7 | 45 | 1.6 | 3.2 | 0.00 | 0.00 | 0.00 | 91 | 1015.4 |
| 20260509043814 | 7 | 45 | 1.6 | 3.2 | 0.00 | 0.00 | 0.00 | 91 | 1015.6 |
| 20260509042703 | 7 | 45 | 0.0 | 1.6 | 0.00 | 0.00 | 0.00 | 91 | 1015.5 |
| 20260509041803 | 7 | 0 | 0.0 | 0.0 | 0.00 | 0.00 | 0.00 | 90 | 1015.4 |
| 20260509040903 | 7 | 45 | 0.0 | 1.6 | 0.00 | 0.00 | 0.00 | 90 | 1015.6 |
| 20260509040003 | 7 | 45 | 0.0 | 1.6 | 0.00 | 0.00 | 0.00 | 85 | 1015.5 |
| 20260509035403 | 7 | 45 | 0.0 | 1.6 | 0.00 | 0.00 | 0.00 | 84 | 1015.6 |
| 20260509034714 | 7 | 0 | 0.0 | 0.0 | 0.00 | 0.00 | 0.00 | 84 | 1015.4 |
| 20260509033603 | 7 | 0 | 0.0 | 0.0 | 0.00 | 0.00 | 0.00 | 84 | 1015.4 |
| 20260509032703 | 7 | 45 | 0.0 | 1.6 | 0.00 | 0.00 | 0.00 | 83 | 1015.7 |
| 20260509031803 | 7 | 45 | 0.0 | 1.6 | 0.00 | 0.00 | 0.00 | 83 | 1015.7 |
| 20260509030903 | 8 | 45 | 0.0 | 1.6 | 0.00 | 0.00 | 0.00 | 83 | 1015.5 |
| 20260509030004 | 7 | 0 | 0.0 | 0.0 | 0.00 | 0.00 | 0.00 | 82 | 1015.8 |
| 20260509025403 | 8 | 45 | 0.0 | 1.6 | 0.00 | 0.00 | 0.00 | 82 | 1015.6 |
| 20260509024503 | 8 | 45 | 1.6 | 3.2 | 0.00 | 0.00 | 0.00 | 82 | 1015.5 |
| 20260509023603 | 8 | 45 | 0.0 | 3.2 | 0.00 | 0.00 | 0.00 | 82 | 1015.6 |
| 20260509022703 | 8 | 0 | 0.0 | 0.0 | 0.00 | 0.00 | 0.00 | 82 | 1015.4 |
| 20260509021803 | 8 | 45 | 0.0 | 1.6 | 0.00 | 0.00 | 0.00 | 82 | 1015.8 |
| 20260509020903 | 8 | 45 | 0.0 | 1.6 | 0.00 | 0.00 | 0.00 | 83 | 1015.8 |
| 20260509020003 | 8 | 45 | 1.6 | 3.2 | 0.00 | 0.00 | 0.00 | 83 | 1015.8 |
| 20260509015403 | 8 | 45 | 0.0 | 1.6 | 0.00 | 0.00 | 0.00 | 83 | 1015.9 |
| 20260509014503 | 9 | 45 | 1.6 | 3.2 | 0.00 | 0.00 | 0.00 | 83 | 1015.8 |
| 20260509013603 | 9 | 45 | 3.2 | 3.2 | 0.00 | 0.00 | 0.00 | 82 | 1016.0 |
| 20260509012703 | 8 | 45 | 1.6 | 3.2 | 0.00 | 0.00 | 0.00 | 82 | 1015.9 |
| 20260509012013 | 8 | 45 | 0.0 | 3.2 | 0.00 | 0.00 | 0.00 | 81 | 1015.9 |
| 20260509010903 | 9 | 45 | 0.0 | 3.2 | 0.00 | 0.00 | 0.00 | 81 | 1015.6 |
| 20260509010003 | 9 | 45 | 0.0 | 1.6 | 0.00 | 0.00 | 0.00 | 81 | 1015.8 |
| 20260509005403 | 9 | 45 | 0.0 | 1.6 | 0.00 | 0.00 | 0.00 | 81 | 1015.9 |
| 20260509004503 | 9 | 0 | 0.0 | 0.0 | 0.00 | 0.00 | 0.00 | 81 | 1016.0 |
| 20260509003603 | 9 | 0 | 0.0 | 0.0 | 0.00 | 0.00 | 0.00 | 81 | 1015.9 |
| 20260509002704 | 9 | 45 | 0.0 | 3.2 | 0.00 | 0.00 | 0.00 | 81 | 1015.8 |
| 20260509002013 | 9 | 0 | 0.0 | 0.0 | 0.00 | 0.00 | 0.00 | 81 | 1015.8 |
| 20260509000903 | 9 | 0 | 0.0 | 0.0 | 0.00 | 0.00 | 0.00 | 81 | 1016.1 |
| 20260509000004 | 9 | 0 | 0.0 | 0.0 | 0.00 | 0.00 | 0.00 | 80 | 1016.1 |
| 20260508235613 | 9 | 45 | 0.0 | 1.6 | 0.00 | 0.00 | 0.00 | 80 | 1016.0 |
| 20260508234503 | 9 | 0 | 0.0 | 0.0 | 0.00 | 0.00 | 0.00 | 80 | 1016.1 |
| 20260508233814 | 9 | 0 | 0.0 | 0.0 | 0.00 | 0.00 | 0.00 | 80 | 1015.8 |
| 20260508232703 | 9 | 0 | 0.0 | 0.0 | 0.00 | 0.00 | 0.00 | 80 | 1015.9 |
| 20260508231803 | 9 | 0 | 0.0 | 0.0 | 0.00 | 0.00 | 0.00 | 79 | 1016.1 |
| 20260508230903 | 9 | 0 | 0.0 | 0.0 | 0.00 | 0.00 | 0.00 | 79 | 1016.0 |
| 20260508230004 | 10 | 45 | 0.0 | 1.6 | 0.00 | 0.00 | 0.00 | 79 | 1015.8 |
| 20260508225613 | 10 | 45 | 0.0 | 1.6 | 0.00 | 0.00 | 0.00 | 79 | 1016.0 |
| 20260508224503 | 10 | 45 | 0.0 | 1.6 | 0.00 | 0.00 | 0.00 | 78 | 1015.8 |
| 20260508223603 | 10 | 45 | 0.0 | 1.6 | 0.00 | 0.00 | 0.00 | 79 | 1015.9 |
| 20260508222703 | 10 | 45 | 0.0 | 3.2 | 0.00 | 0.00 | 0.00 | 78 | 1015.9 |
| 20260508221803 | 10 | 45 | 0.0 | 1.6 | 0.00 | 0.00 | 0.00 | 77 | 1016.0 |
| 20260508220903 | 10 | 45 | 1.6 | 3.2 | 0.00 | 0.00 | 0.00 | 76 | 1015.9 |
| 20260508220003 | 11 | 45 | 0.0 | 1.6 | 0.00 | 0.00 | 0.00 | 75 | 1016.0 |
| 20260508215403 | 11 | 45 | 0.0 | 1.6 | 0.00 | 0.00 | 0.00 | 75 | 1016.1 |